BIRD-BT (BHUTAN-1) is no longer on orbit BIRD-BT (BHUTAN-1) is classified as:
1 43591U 98067PF 20323.57107911 +.11695971 +12499-4 +37838-3 0 9993 2 43591 051.6155 198.6835 0005882 255.3071 104.7305 16.44501217130390